Regional Weather Roundup
Issued by NWS Charleston, WV

Home | Current Version | Previous Version | Graphics & Text | Print | Product List | Glossary On
Versions: 1 2 3 4 5 6 7 8 9 10 11 12 13 14 15 16 17 18 19 20 21 22 23 24 25 26 27 28 29 30 31 32 33 34 35 36 37 38 39 40 41 42 43 44 45 46 47 48 49 50
000
ASUS41 KRLX 281810
RWRRLX
West Virginia Regional Weather Roundup
National Weather Service Charleston WV
200 PM EDT SUN AUG 28 2016

Note: "fair" indicates few or no clouds below 12,000 feet with no
significant weather and/or obstructions to visibility.

WVZ003-281900-
Northern Panhandle of West Virginia

CITY           SKY/WX    TMP DP  RH WIND       PRES   REMARKS
WHEELING       MOSUNNY   89  73  59 NW7       30.22F HX  97
$$

WVZ009-281900-
Northwest West Virginia

CITY           SKY/WX    TMP DP  RH WIND       PRES   REMARKS
PARKERSBURG    PTSUNNY   90  72  55 SE5       30.22S HX  97
$$

WVZ006-281900-
Western West Virginia

CITY           SKY/WX    TMP DP  RH WIND       PRES   REMARKS
HUNTINGTON     CLOUDY    90  74  59 VRB3      30.19F HX  99
$$

WVZ015-281900-
West Central West Virginia

CITY           SKY/WX    TMP DP  RH WIND       PRES   REMARKS
CHARLESTON     PTSUNNY   91  70  49 VRB3      30.20F HX  96
$$

WVZ022-031-281900-
North Central West Virginia

CITY           SKY/WX    TMP DP  RH WIND       PRES   REMARKS
CLARKSBURG     SUNNY     88  72  58 SE3       30.22F
MORGANTOWN     PTSUNNY   90  72  55 CALM      30.23F HX  97
$$

WVZ025-035-042-045-281900-
Southern West Virginia

CITY           SKY/WX    TMP DP  RH WIND       PRES   REMARKS
BECKLEY        SUNNY     84  69  60 VRB3      30.30F
LOGAN            N/A     88  72  58 CALM      30.23F
BLUEFIELD      MOSUNNY   81  66  60 NE7       30.32F
LEWISBURG      MOSUNNY   82  67  61 CALM      30.29F
$$

WVZ047-281900-
Northern Mountains of West Virginia

CITY           SKY/WX    TMP DP  RH WIND       PRES   REMARKS
ELKINS         MOSUNNY   87  69  54 NW5       30.27F
$$

WVZ052-281900-
Eastern Panhandle of West Virginia

CITY           SKY/WX    TMP DP  RH WIND       PRES   REMARKS
MARTINSBURG    SUNNY     87  66  49 S8        30.23F
PETERSBURG     SUNNY     92  69  46 E3        30.21F HX  97
$$



USA.gov is the U.S. government's official web portal to all federal, state and local government web resources and services.